Flag for Guadeloupe Weather past 2 weeks in Basse-Terre, Guadeloupe

Now
75 °F

Passing clouds.


Feels Like: 74 °F
Forecast: 79 / 82 °F
Wind: No wind

Location: Le Raizet - Guadeloupe

Current Time: Sep 23, 2014 at 3:12:37 AM

Latest Report: Sep 23, 2014 at 2:30 AM


Visibility: N/A

Pressure: 29.89 "Hg

Humidity: 94%

Dew point: 73 °F

Location of Basse-TerreLocation

Historic Weather in Basse-Terre — Graph

°F

Basse-Terre temperature yesterday

Maximum temperature yesterday: 86 °F (at 10:00 AM)
Minimum temperature yesterday: 75 °F (at 5:30 AM)
Average temperature yesterday: 80 °F

Past Weeks' High & Low Weather Summary

 TemperatureHumidityPressure
High90 °F (Sep 11, 1:00 PM)100% (Sep 20, 1:00 AM)30.07 "Hg (Sep 20, 1:00 AM)
Low73 °F (Sep 9, 2:00 AM)49% (Sep 9, 12:30 PM)29.86 "Hg (Sep 17, 3:36 PM)
Average81 °F78%29.95 "Hg
* Reported Sep 8 2:00 AM — Sep 23 2:00 AM, Basse-Terre, Weather by CustomWeather, © 2014

Note: Actual official high and low records may vary slightly from our data, if they occured in-between our weather recording intervals... More about our weather records

Advertising

Basse-Terre weather history for previous 24 hours

 ConditionsComfort  
Time TempWeatherWind HumidityBarometerVisibility
2:00 AM
Sep 23
75 °FClear.1 mph94%29.92 "HgN/A
1:30 AM75 °FOvercast.5 mph94%29.92 "HgN/A
1:00 AM75 °FMostly cloudy.1 mph94%29.92 "HgN/A
12:30 AM75 °FMostly cloudy.6 mph94%29.92 "HgN/A
12:00 AM75 °FMild.6 mph94%29.95 "HgN/A
11:30 PM
Sep 22
75 °FPartly cloudy.3 mph89%29.95 "HgN/A
11:00 PM79 °FHeavy rain. Mostly cloudy.6 mph79%29.95 "HgN/A
10:30 PM79 °FMostly cloudy.3 mph84%29.95 "HgN/A
10:00 PM79 °FMostly cloudy.5 mph84%29.95 "HgN/A
9:30 PM81 °FMostly cloudy.5 mph79%29.95 "HgN/A
9:00 PM81 °FMostly cloudy.3 mph74%29.95 "HgN/A
8:30 PM81 °FMostly cloudy.5 mph74%29.95 "HgN/A
8:00 PM81 °FOvercast.3 mph74%29.95 "HgN/A
7:30 PM79 °FClear.3 mph84%29.92 "HgN/A
7:00 PM79 °FPassing clouds.3 mph84%29.92 "HgN/A
6:30 PM81 °FPassing clouds.5 mph74%29.92 "HgN/A
6:00 PM81 °FPartly sunny.6 mph79%29.92 "HgN/A
5:30 PM82 °FPartly sunny.7 mph70%29.92 "HgN/A
5:00 PM82 °FPartly sunny.7 mph74%29.89 "HgN/A
4:30 PM82 °FPartly sunny.8 mph74%29.89 "HgN/A
4:04 PM82 °FPartly sunny.9 mph70%29.89 "HgN/A
3:30 PM82 °FPartly sunny.5 mph79%29.89 "HgN/A
3:06 PM81 °FPartly sunny.6 mph79%29.89 "HgN/A
2:30 PM81 °FPartly sunny.6 mph84%29.89 "HgN/A
1:44 PM79 °FBroken clouds.6 mph84%29.89 "HgN/A
1:00 PM79 °FBroken clouds.7 mph84%29.92 "HgN/A
12:30 PM79 °FBroken clouds.6 mph84%29.95 "HgN/A
12:00 PM79 °FBroken clouds.5 mph84%29.98 "HgN/A
11:30 AM79 °FBroken clouds.14 mph79%29.98 "HgN/A
11:00 AM86 °FBroken clouds.13 mph66%29.98 "HgN/A
10:30 AM86 °FBroken clouds.9 mph66%29.98 "HgN/A
10:00 AM86 °FBroken clouds.8 mph70%29.98 "HgN/A
9:30 AM82 °FScattered clouds.10 mph70%29.98 "HgN/A
9:00 AM84 °FScattered clouds.6 mph70%29.98 "HgN/A
8:34 AM84 °FScattered clouds.2 mph70%29.95 "HgN/A
8:19 AM84 °FScattered clouds.No wind70%29.95 "HgN/A
7:00 AM77 °FClear.No wind83%29.92 "HgN/A
6:30 AM75 °FPassing clouds.1 mph89%29.92 "HgN/A
6:00 AM75 °FClear.3 mph89%29.92 "HgN/A
5:30 AM75 °FClear.2 mph89%29.92 "HgN/A
5:00 AM77 °FClear.2 mph79%29.92 "HgN/A
4:30 AM77 °FClear.5 mph83%29.92 "HgN/A
4:00 AM77 °FClear.7 mph83%29.92 "HgN/A
3:30 AM77 °FMostly cloudy.3 mph89%29.89 "HgN/A
3:00 AM77 °FMostly cloudy.2 mph89%29.92 "HgN/A
Weather by CustomWeather, © 2014

See weather overviewHow to use our weather pages